Location: *
(13.0000°N, 151.6000°E)
Time: 15:54:35
(UTC+00:00)

Cosmos 2219 Rocket - Pass Details

Date: 01 April 2020
Orbit: 829 x 845 km, 71.0° (Epoch: 04 June)

Event Time Altitude Azimuth Distance (km) Brightness Sun altitude
Exits shadow 18:14:52 17° 188° (S) 1,996 3.9 -23.6°
Drops below altitude 10° 18:16:05 10° 183° (S) 2,428 4.4 -23.3°
Sets 18:18:36 0° 177° (S) 3,363 5.2 -22.7°
